Youngstown, OH

10:31 PM EDT on April 24, 2017 (GMT -0400)
Youngstown-Warren Regional

Weather History for KYNG - November, 2011

Change the Weather History Date:

Monday, November 14, 2011

  Actual Average Record
Temperature  
Mean Temperature 60 °F 42 °F  
Max Temperature 68 °F 50 °F 69 °F (1994)
Min Temperature 51 °F 35 °F 12 °F (1986)
Degree Days  
Heating Degree Days 5 23  
Month to date heating degree days 234 289  
Since 1 July heating degree days 786 910  
Cooling Degree Days 0 0  
Month to date cooling degree days 0 0  
Year to date cooling degree days 731 544  
Growing Degree Days 10 (Base 50)    
Moisture  
Dew Point 53 °F    
Average Humidity 78    
Maximum Humidity 100    
Minimum Humidity 55    
Precipitation  
Precipitation 1.46 in 0.10 in 2.05 in (1993)
Month to date precipitation 1.68 1.43  
Year to date precipitation 47.11 34.17  
Snow  
Snow 0.00 in 0.10 in - ()
Month to date snowfall 1.7 1.0  
Since 1 July snowfall 1.7 1.8  
Since 1 September snowfall 1.7 1.8  
Snow Depth 0.00 in    
Sea Level Pressure  
Sea Level Pressure 29.71 in    
Wind  
Wind Speed 11 mph (SSW)    
Max Wind Speed 31 mph    
Max Gust Speed 44 mph    
Visibility 7 miles    
Events Rain , Thunderstorm    
T = Trace of Precipitation, MM = Missing Value Source: NWS Daily Summary

Daily Weather History Graph

Daily Weather History Graph

Search for Another Location

Airport or City:

Trip Planner

Search our weather history database for the weather conditions in past years. The results will help you decide how hot, cold, wet, or windy it might be!

Date:

Astronomy

Nov. 14, 2011 Rise Set
Actual Time 7:09 AM EST 5:04 PM EST
Civil Twilight 6:39 AM EST 5:34 PM EST
Nautical Twilight 6:06 AM EST 6:07 PM EST
Astronomical Twilight 5:33 AM EST 6:39 PM EST
Moon 8:09 PM EST (11/14) 10:27 AM EST (11/14)
Length of Visible Light 10h 54m
Length of Day
9h 55m
Waning Gibbous, 87% of the Moon is Illuminated
Nov 14
Waning Gibbous
Nov 18
Last Quarter
Nov 25
New
Dec 2
First Quarter
Dec 10
Full

Hourly Weather History & Observations

Time (EST) Temp. Dew Point Humidity Pressure Visibility Wind Dir Wind Speed Gust Speed Precip Events Conditions
12:51 AM 61.0 °F 46.0 °F 58% 29.73 in 10.0 mi SW 15.0 mph 26.5 mph N/A   Overcast
1:51 AM 57.9 °F 48.9 °F 72% 29.76 in 8.0 mi SW 21.9 mph 32.2 mph 0.00 in Rain Light Rain
2:51 AM 55.9 °F 50.0 °F 80% 29.76 in 10.0 mi South 8.1 mph - 0.08 in   Overcast
3:51 AM 55.9 °F 48.9 °F 77% 29.75 in 10.0 mi South 9.2 mph - N/A   Overcast
4:51 AM 57.0 °F 48.9 °F 74% 29.75 in 10.0 mi South 9.2 mph - 0.00 in   Overcast
5:51 AM 57.9 °F 50.0 °F 75% 29.76 in 10.0 mi SSW 9.2 mph - 0.00 in Rain Light Rain
6:29 AM 55.4 °F 51.8 °F 88% 29.78 in 6.0 mi SSW 5.8 mph - 0.07 in Rain Light Rain
6:51 AM 55.0 °F 53.1 °F 93% 29.78 in 6.0 mi SSW 10.4 mph - 0.11 in Rain Light Rain
7:05 AM 55.4 °F 53.6 °F 94% 29.79 in 5.0 mi SSW 11.5 mph - 0.03 in Rain Light Rain
7:42 AM 55.4 °F 53.6 °F 94% 29.79 in 5.0 mi SSW 9.2 mph - 0.07 in Rain Light Rain
7:51 AM 55.0 °F 53.1 °F 93% 29.79 in 3.0 mi South 8.1 mph - 0.09 in Rain Light Rain
8:04 AM 55.4 °F 53.6 °F 94% 29.79 in 7.0 mi South 10.4 mph - 0.00 in Rain Light Rain
8:51 AM 55.0 °F 53.1 °F 93% 29.78 in 3.0 mi South 9.2 mph - 0.03 in Rain Light Rain
9:51 AM 55.9 °F 54.0 °F 93% 29.77 in 10.0 mi SSW 9.2 mph 18.4 mph 0.01 in Rain Light Rain
10:51 AM 57.0 °F 54.0 °F 89% 29.77 in 3.0 mi South 8.1 mph - 0.00 in Rain Light Rain
11:00 AM 55.4 °F 53.6 °F 94% 29.77 in 3.0 mi South 5.8 mph - 0.01 in Rain Light Rain
11:17 AM 55.4 °F 53.6 °F 94% 29.77 in 2.0 mi SSW 5.8 mph - 0.04 in Rain Heavy Rain
11:34 AM 55.4 °F 55.4 °F 100% 29.76 in 1.5 mi South 6.9 mph - 0.10 in Rain Heavy Rain
11:51 AM 55.9 °F 55.0 °F 97% 29.75 in 1.0 mi SSW 5.8 mph - 0.19 in Rain Rain
12:06 PM 55.4 °F 55.4 °F 100% 29.74 in 0.8 mi South 5.8 mph - 0.13 in Rain Heavy Rain
12:29 PM 57.2 °F 55.4 °F 94% 29.72 in 7.0 mi SW 11.5 mph - 0.38 in Rain Light Rain
12:30 PM 57.2 °F 55.4 °F 94% 29.72 in 7.0 mi SW 12.7 mph - 0.38 in Rain Light Rain
12:51 PM 57.9 °F 55.9 °F 93% 29.70 in 10.0 mi South 6.9 mph - 0.38 in   Overcast
1:51 PM 62.1 °F 55.9 °F 80% 29.66 in 10.0 mi SSW 11.5 mph - N/A   Overcast
2:51 PM 64.9 °F 57.9 °F 78% 29.61 in 10.0 mi South 9.2 mph - N/A   Overcast
3:51 PM 66.0 °F 55.9 °F 70% 29.57 in 10.0 mi South 15.0 mph 25.3 mph 0.00 in   Overcast
4:51 PM 66.9 °F 55.0 °F 66% 29.57 in 10.0 mi SSW 15.0 mph 27.6 mph N/A   Overcast
5:51 PM 68.0 °F 55.0 °F 63% 29.59 in 10.0 mi SSW 19.6 mph 36.8 mph N/A   Overcast
6:51 PM 66.9 °F 55.9 °F 68% 29.60 in 10.0 mi SW 17.3 mph 27.6 mph N/A   Overcast
7:19 PM 64.4 °F 53.6 °F 68% 29.66 in 10.0 mi WNW 26.5 mph 40.3 mph 0.00 in Rain Light Rain
7:23 PM 59.0 °F 51.8 °F 77% 29.66 in 1.5 mi WNW 26.5 mph 40.3 mph 0.00 in Rain Rain
7:35 PM 53.6 °F 51.8 °F 94% 29.66 in 1.5 mi SW 19.6 mph 43.7 mph 0.29 in Rain , Thunderstorm Heavy Thunderstorms and Rain
7:51 PM 51.1 °F 48.9 °F 92% 29.67 in 1.5 mi WSW 11.5 mph - 0.31 in Rain , Thunderstorm Thunderstorms and Rain
8:30 PM 53.6 °F 51.8 °F 94% 29.67 in 4.0 mi WSW 9.2 mph - 0.06 in Rain Light Rain
8:51 PM 53.6 °F 51.8 °F 94% 29.67 in 4.0 mi WSW 9.2 mph - N/A Rain Rain
9:51 PM 55.0 °F 53.1 °F 93% 29.68 in 10.0 mi SSW 9.2 mph - 0.03 in Rain Light Rain
10:51 PM 55.0 °F 53.1 °F 93% 29.71 in 10.0 mi SW 11.5 mph - 0.10 in Rain Light Rain
11:34 PM 55.4 °F 53.6 °F 94% 29.70 in 10.0 mi WSW 6.9 mph - 0.01 in   Overcast
11:51 PM 55.0 °F 53.1 °F 93% 29.72 in 10.0 mi SW 8.1 mph - 0.01 in   Overcast